Weather History for KLUX - September, 2013

Change the Weather History Date:

Saturday, September 28, 2013

  Actual Average (KGSP) Record (KGSP)
Temperature  
Mean Temperature 62 °F 68 °F  
Max Temperature 73 °F 78 °F 91 °F (1986)
Min Temperature 51 °F 57 °F 39 °F (1993)
Degree Days  
Heating Degree Days 3 2  
Month to date heating degree days 12  
Since 1 July heating degree days 12  
Cooling Degree Days 0 4  
Month to date cooling degree days 219  
Year to date cooling degree days 1654  
Growing Degree Days 12 (Base 50)    
Moisture  
Dew Point 53 °F    
Average Humidity 62    
Maximum Humidity 100    
Minimum Humidity 46    
Precipitation  
Precipitation 0.00 in 0.12 in 3.89 in (1963)
Month to date precipitation 3.19  
Year to date precipitation 35.70  
Snow  
Snow 0.00 in 0.00 in 0.00 in ()
Month to date snowfall 0.0  
Since 1 July snowfall 0.0  
Since 1 September snowfall 0.0  
Snow Depth -    
Sea Level Pressure  
Sea Level Pressure 30.20 in    
Wind  
Wind Speed 3 mph (NE)    
Max Wind Speed 13 mph    
Max Gust Speed 22 mph    
Visibility 10 miles    
Events      
T = Trace of Precipitation, MM = Missing Value Source: NWS Daily Summary

Daily Weather History Graph

Daily Weather History Graph

Search for Another Location

Airport or City:

Trip Planner

Search our weather history database for the weather conditions in past years. The results will help you decide how hot, cold, wet, or windy it might be!

Date:

Astronomy

Sep. 28, 2013 Rise Set
Actual Time 7:20 AM EDT 7:15 PM EDT
Civil Twilight 6:55 AM EDT 7:40 PM EDT
Nautical Twilight 6:26 AM EDT 8:09 PM EDT
Astronomical Twilight 5:56 AM EDT 8:39 PM EDT
Moon 1:19 AM EDT (9/28) 3:21 PM EDT (9/28)
Length of Visible Light 12h 45m
Length of Day
11h 55m
Last Quarter, 36% of the Moon is Illuminated
Sep 28
Last Quarter
Oct 4
New
Oct 11
First Quarter
Oct 18
Full
Oct 26
Last Quarter

Hourly Weather History & Observations

Time (EDT) Temp. Dew Point Humidity Pressure Visibility Wind Dir Wind Speed Gust Speed Precip Events Conditions
12:35 AM 59.0 °F - N/A% 30.19 in 10.0 mi Calm Calm - N/A   Clear
12:55 AM 57.2 °F - N/A% 30.19 in 10.0 mi Calm Calm - N/A   Clear
1:15 AM 57.2 °F - N/A% 30.19 in 10.0 mi Calm Calm - N/A   Clear
1:35 AM 55.4 °F - N/A% 30.19 in 10.0 mi Calm Calm - N/A   Clear
1:55 AM 55.4 °F - N/A% 30.19 in 10.0 mi Calm Calm - N/A   Clear
2:15 AM 55.4 °F - N/A% 30.19 in 10.0 mi NNE 3.5 mph - N/A   Clear
2:35 AM 55.4 °F - N/A% 30.19 in 10.0 mi NE 4.6 mph - N/A   Clear
2:55 AM 55.4 °F - N/A% 30.19 in 10.0 mi Calm Calm - N/A   Clear
3:15 AM 55.4 °F - N/A% 30.19 in 10.0 mi Calm Calm - N/A   Clear
3:35 AM 55.4 °F - N/A% 30.18 in 10.0 mi Calm Calm - N/A   Clear
3:55 AM 53.6 °F - N/A% 30.18 in 10.0 mi Calm Calm - N/A   Clear
4:15 AM 53.6 °F - N/A% 30.18 in 10.0 mi Calm Calm - N/A   Clear
4:35 AM 53.6 °F - N/A% 30.18 in 10.0 mi Calm Calm - N/A   Clear
4:55 AM 53.6 °F - N/A% 30.19 in 10.0 mi NE 3.5 mph - N/A   Clear
5:15 AM 53.6 °F - N/A% 30.19 in 10.0 mi Calm Calm - N/A   Clear
5:35 AM 53.6 °F - N/A% 30.20 in 10.0 mi Calm Calm - N/A   Clear
5:55 AM 53.6 °F - N/A% 30.20 in 10.0 mi NNE 4.6 mph - N/A   Clear
6:15 AM 51.8 °F - N/A% 30.21 in 10.0 mi Calm Calm - N/A   Clear
6:35 AM 51.8 °F - N/A% 30.22 in 10.0 mi North 3.5 mph - N/A   Clear
6:55 AM 51.8 °F - N/A% 30.22 in 10.0 mi North 4.6 mph - N/A   Clear
7:15 AM 51.8 °F - N/A% 30.23 in 10.0 mi North 3.5 mph - N/A   Clear
7:35 AM 51.8 °F - N/A% 30.23 in 10.0 mi North 3.5 mph - N/A   Clear
7:55 AM 53.6 °F - N/A% 30.23 in 10.0 mi North 4.6 mph - N/A   Clear
8:15 AM 55.4 °F - N/A% 30.24 in 10.0 mi North 4.6 mph - N/A   Clear
8:35 AM 55.4 °F - N/A% 30.25 in 10.0 mi North 4.6 mph - N/A   Clear
8:55 AM 59.0 °F - N/A% 30.25 in 10.0 mi North 4.6 mph - N/A   Clear
9:15 AM 60.8 °F 57.2 °F 88% 30.25 in 10.0 mi NNE 5.8 mph - N/A   Clear
9:55 AM 64.4 °F 55.4 °F 73% 30.26 in 10.0 mi NE 4.6 mph - N/A   Clear
10:35 AM 66.2 °F 53.6 °F 64% 30.27 in 10.0 mi ENE 5.8 mph - N/A   Clear
11:15 AM 68.0 °F 51.8 °F 56% 30.27 in 10.0 mi NE 9.2 mph - N/A   Clear
11:55 AM 69.8 °F 51.8 °F 53% 30.26 in 10.0 mi ENE 10.4 mph 20.7 mph N/A   Scattered Clouds
12:15 PM 71.6 °F 51.8 °F 50% 30.25 in 10.0 mi NNE 6.9 mph - N/A   Scattered Clouds
12:35 PM 71.6 °F 51.8 °F 50% 30.25 in 10.0 mi ENE 12.7 mph 18.4 mph N/A   Scattered Clouds
12:55 PM 71.6 °F 51.8 °F 50% 30.24 in 10.0 mi East 10.4 mph 21.9 mph N/A   Scattered Clouds
1:15 PM 71.6 °F 50.0 °F 46% 30.24 in 10.0 mi ENE 9.2 mph - N/A   Mostly Cloudy
1:35 PM 71.6 °F 51.8 °F 50% 30.23 in 10.0 mi ENE 6.9 mph - N/A   Mostly Cloudy
1:55 PM 71.6 °F 51.8 °F 50% 30.23 in 10.0 mi NNE 8.1 mph - N/A   Mostly Cloudy
2:15 PM 71.6 °F 51.8 °F 50% 30.21 in 10.0 mi NE 9.2 mph - N/A   Overcast
2:35 PM 73.4 °F 51.8 °F 47% 30.21 in 10.0 mi North 6.9 mph - N/A   Mostly Cloudy
2:55 PM 71.6 °F 51.8 °F 50% 30.20 in 10.0 mi NE 6.9 mph - N/A   Scattered Clouds
3:15 PM 71.6 °F 51.8 °F 50% 30.19 in 10.0 mi NNE 6.9 mph - N/A   Scattered Clouds
3:35 PM 73.4 °F 53.6 °F 50% 30.18 in 10.0 mi NNE 8.1 mph 17.3 mph N/A   Scattered Clouds
3:55 PM 73.4 °F 51.8 °F 47% 30.18 in 10.0 mi NE 8.1 mph 16.1 mph N/A   Scattered Clouds
4:15 PM 73.4 °F 51.8 °F 47% 30.18 in 10.0 mi North 8.1 mph - N/A   Scattered Clouds
4:35 PM 73.4 °F 51.8 °F 47% 30.18 in 10.0 mi NNE 4.6 mph - N/A   Scattered Clouds
4:55 PM 71.6 °F 50.0 °F 46% 30.18 in 10.0 mi NE 6.9 mph 16.1 mph N/A   Scattered Clouds
5:15 PM 73.4 °F 51.8 °F 47% 30.18 in 10.0 mi NNE 10.4 mph 18.4 mph N/A   Scattered Clouds
5:35 PM 71.6 °F 51.8 °F 50% 30.18 in 10.0 mi NNE 5.8 mph - N/A   Scattered Clouds
5:55 PM 71.6 °F 51.8 °F 50% 30.18 in 10.0 mi NNE 8.1 mph - N/A   Clear
6:15 PM 71.6 °F 51.8 °F 50% 30.18 in 10.0 mi NE 5.8 mph - N/A   Clear
6:35 PM 69.8 °F 51.8 °F 53% 30.17 in 10.0 mi NE 3.5 mph - N/A   Clear
6:55 PM 68.0 °F 51.8 °F 56% 30.17 in 10.0 mi NE 4.6 mph - N/A   Clear
7:15 PM 66.2 °F 53.6 °F 64% 30.17 in 10.0 mi ENE 3.5 mph - N/A   Clear
7:35 PM 64.4 °F 53.6 °F 68% 30.17 in 10.0 mi Calm Calm - N/A   Clear
7:55 PM 62.6 °F 55.4 °F 77% 30.18 in 10.0 mi Calm Calm - N/A   Clear
8:15 PM 60.8 °F 57.2 °F 88% 30.18 in 10.0 mi NE 3.5 mph - N/A   Clear
8:35 PM 60.8 °F 55.4 °F 82% 30.18 in 10.0 mi ENE 4.6 mph - N/A   Clear
9:15 PM 60.8 °F 55.4 °F 82% 30.19 in 10.0 mi Calm Calm - N/A   Clear
9:55 PM 60.8 °F 53.6 °F 77% 30.19 in 10.0 mi ENE 3.5 mph - N/A   Clear
10:15 PM 59.0 °F 53.6 °F 82% 30.19 in 10.0 mi NE 3.5 mph - N/A   Clear
10:35 PM 59.0 °F 53.6 °F 82% 30.19 in 10.0 mi NE 3.5 mph - N/A   Clear
10:55 PM 59.0 °F 53.6 °F 82% 30.19 in 10.0 mi Calm Calm - N/A   Clear
11:15 PM 57.2 °F 53.6 °F 88% 30.18 in 10.0 mi NE 4.6 mph - N/A   Clear
11:35 PM 57.2 °F 55.4 °F 94% 30.19 in 10.0 mi Calm Calm - N/A   Clear
11:55 PM 55.4 °F 55.4 °F 100% 30.19 in 10.0 mi Calm Calm - N/A   Clear